Preview of NWS' New Version of Forecast
This preview is not operational and should not be used for support decisions.
Latest weather observations around

Concord, Buchanan Field (KCCR)

Using English Units (Switch to International System of Units)
Date/ Time (PDT) Wind (mph) Vis. (mi) Weather Sky Cond. Temp (°F) Rel. Humidity Wind Chill (°F) Heat Index (°F) Pressure Precip. (in)
Air Dwpt 6 hour Altimeter (inHg) Sea level (inHg) 1 hr 3 hr 6 hr
Max Min
Jun 24 08:53 7 10 Clear CLR 68 54     61%     29.88        
Jun 24 07:53 3 10 Clear CLR 65 54     68%     29.87        
Jun 24 06:53 N 3 10 Clear CLR 60 54     80%     29.87        
Jun 24 05:53 W 3 10 Clear CLR 59 52     78%     29.86        
Jun 24 04:53 Calm 10 Clear CLR 59 52     78%     29.85        
Jun 24 03:53 N 5 10 Clear CLR 60 52     75%     29.85        
Jun 24 02:53 N 5 10 Clear CLR 60 53     78%     29.86        
Jun 24 01:53 NNW 6 10 Clear CLR 62 54     75%     29.86        
Jun 24 00:53 NNW 5 10 Clear CLR 64 50     60%     29.87        
Jun 23 23:53 SSW 6 10 Clear CLR 70 45     41%     29.89        
Jun 23 22:53 SW 5 10 Clear CLR 73 46     38%   72 29.89        
Jun 23 21:53 Calm 10 Clear CLR 75 49     40%   74 29.89        
Jun 23 20:53 W 3 10 Clear CLR 78 49     36%   77 29.88        
Jun 23 19:53 W 5 10 Clear CLR 84 50     31%   82 29.88        
Jun 23 18:53 W 8 10 Clear CLR 89 50     26%   86 29.87        
Jun 23 17:53 W 8 10 Clear CLR 92 54     28%   90 29.87        
Jun 23 16:53 WNW 10 10 Clear CLR 94 54     26%   92 29.88        
Jun 23 15:53 WNW 11 10 Clear CLR 96 47     19%   92 29.89        
Jun 23 14:53 NW 15 10 Clear CLR 95 47     19%   91 29.9        
Jun 23 13:53 NW 11 10 Clear CLR 94 45     19%   90 29.91        
Jun 23 12:53 7 10 Clear CLR 91 51     26%   88 29.93        
Jun 23 11:53   10 Clear CLR 89 54     30%   87 29.94        
Jun 23 10:53 NNW 6 10 Clear CLR 84 55     37%   83 29.94        
Jun 23 09:53 Calm 10 Clear CLR 78 54     43%   78 29.95        
Jun 23 08:53 N 5 10 Clear CLR 73 53     50%   72 29.96        
Jun 23 07:53 Calm 10 Clear CLR 67 53     61%     29.95        
Jun 23 06:53 Calm 10 Clear CLR 63 52     67%     29.94        
Jun 23 05:53 Calm 10 Clear CLR 61 52     72%     29.92        
Jun 23 04:53 Calm 10 Clear CLR 62 53     72%     29.92        
Jun 23 03:53 Calm 10 Clear CLR 62 54     75%     29.91        
Jun 23 02:53 N 3 10 Clear   62 54     75%     29.92        
Jun 23 01:53 N 5 10 Clear CLR 63 54     72%     29.92        
Jun 23 00:53 NNW 5 10 Clear CLR 67 49     52%     29.91        
Jun 22 23:53 SSW 6 10 Clear CLR 74 42     32%   73 29.92        
Jun 22 22:53 SSE 5 10 Clear CLR 75 43     32%   74 29.92        
Jun 22 21:53 S 7 10 Clear CLR 78 42     28%   77 29.91        
Jun 22 20:53 SW 8 10 Clear CLR 80 42     26%   79 29.91        
Jun 22 19:53 SW 7 10 Clear CLR 85 42     22%   82 29.9        
Jun 22 18:53 WNW 14 10 Clear CLR 88 43     21%   85 29.89        
Jun 22 17:53 WSW 13 10 Clear CLR 91 45     20%   87 29.88        
Jun 22 16:53 WNW 13 10 Clear CLR 94 47     20%   90 29.88        
Jun 22 15:53 NW 10 10 Clear CLR 96 41     15%   92 29.89        
Jun 22 14:53 5 10 Clear CLR 94 41     16%   90 29.9        
Jun 22 13:53 7 10 Clear CLR 94 40     15%   90 29.91        
Jun 22 12:53 NNE 8 10 Clear CLR 90 41     18%   86 29.92        
Jun 22 11:53 NNW 5 10 Clear CLR 88 46     23%   85 29.93        
Jun 22 10:53 Calm 10 Clear CLR 81 49     33%   80 29.94        
Jun 22 09:53 5 10 Clear CLR 76 51     42%   75 29.95        
Jun 22 08:53 Calm 10 Clear CLR 69 50     51%     29.95        
Jun 22 07:53 Calm 10 Clear CLR 64 50     60%     29.95        
Jun 22 06:53 Calm 10 Clear CLR 59 51     75%     29.94        
Jun 22 05:53 Calm 9 Clear CLR 57 51     81%     29.92        
Jun 22 04:53 Calm 9 Clear CLR 58 51     78%     29.91        
Jun 22 03:53 NNW 3 10 Clear CLR 58 51     78%     29.9        
Jun 22 02:53 N 3 10 Clear CLR 59 52     78%     29.89        
Jun 22 01:53 NNW 3 10 Clear CLR 61 52     72%     29.89        
Jun 22 00:53 NNW 5 10 Clear CLR 65 45     48%     29.89        
Jun 21 23:53 SSW 7 10 Clear CLR 69 42     38%     29.88        
Jun 21 22:53 S 3 10 Clear CLR 70 40     33%     29.88        
Jun 21 21:53 SSW 7 10 Clear CLR 72 41     33%   70 29.87        
Jun 21 20:53 S 6 10 Clear CLR 74 42     32%   73 29.86        
Jun 21 19:53 SSW 6 10 Clear CLR 77 43     30%   76 29.86        
Jun 21 18:53 W 8 10 Clear CLR 79 45     30%   78 29.85        
Jun 21 17:53 W 11 10 Clear CLR 82 49     32%   81 29.84        
Jun 21 16:53 WNW 13 10 Clear CLR 84 46     27%   82 29.84        
Jun 21 15:53 WNW 9 10 Clear CLR 85 46     26%   82 29.84        
Jun 21 14:53 WNW 11 10 Clear CLR 84 42     23%   81 29.86        
Jun 21 13:53 WSW 9 10 Clear CLR 81 44     27%   80 29.87        
Jun 21 12:53   10 Clear CLR 80 44     28%   79 29.89        
Jun 21 11:53 W 6 10 Clear CLR 76 46     35%   75 29.89        
Jun 21 10:53 WNW 8 10 Clear CLR 72 49     44%   71 29.9        
Jun 21 09:53 SSW 6 10 Clear CLR 69 51     53%     29.9        
May 15 01:49 W 6 10 Mostly Cloudy BKN020 55 48     77%     29.99        
May 14 19:53 SW 15 10 Clear CLR 59 48     67%     29.96        
May 14 17:53 W 18 10 Clear CLR 64 48     56%     29.94        
May 14 15:53   10 Clear CLR 66 48     52%     29.96        
May 14 14:53 WSW 20 10 Mostly Clear and Windy FEW026 66 49     54%     29.98        
May 14 04:53 WSW 10 10 Cloudy OVC016 55 47     74%     29.99        
May 12 13:53   10 Clear   79 47     32%   78 29.84        
May 11 18:53   10 Clear CLR 83 32     16%   80 29.73        
Jun 12 06:53 SSW 8 10 Clear CLR 56 49     77%     30.05        
Jun 11 17:53   10 Mostly Cloudy SCT046 BKN085 65 44     47%     29.94        
Jun 11 16:53 W 17 10 Clear CLR 69 43     39%     29.91        
Jun 10 19:53 WNW 16 10 Mostly Clear FEW037 64 47     54%     29.92        
Jun 10 13:53 WNW 16 10 Partly Cloudy SCT040 73 43     34%   72 29.94        
Jun 10 07:53   10 Clear CLR 60 44     55%     29.95        
Jun 09 20:53 SW 11 10 Clear CLR 61 45     56%     29.95        
Jun 09 09:06 W 10 10 Cloudy BKN019 OVC029 63 57     81%     29.94        
Jun 09 04:53 SSW 3 10 Cloudy OVC029 62 57     84%     29.94       0
Jun 09 01:53 WSW 8 10 Cloudy FEW011 OVC025 62 58     86%     29.96     0  
Jun 08 20:53 WNW 5 10 Cloudy OVC035 64 59     84%     29.98        
Jun 08 10:00 SSW 9 10 Cloudy OVC029 63 47     56%     30.01        
Jun 07 06:53   10 Mostly Clear FEW012 56 51     84%     29.89